www.pogodaiklimat.ru

Погода и климат >> Архив погоды >> Венгрия >> Сомбатхей


ПОГОДА в Сомбатхее

  • Прогноз погоды в Сомбатхее
  • Монитор погоды в Сомбатхее

АРХИВ ПОГОДЫ в Сомбатхее

Время (UTC), дата Ветер
(напр.,м/с)
 
Видим.   Явления Облачность Т
(С)
Тd
(С)
f
(%)
Тe
(С)
Тes
(С)
Комфортность P
(гПа)
Po
(гПа)
Тmin
(С)
Tmax
(С)
R
(мм)
R24
(мм)
S
(см)
19 16.09 штиль 0 н/о н/о +21.1 +15.9 72 +24 +24 комфорт 1015.5 992.0
20 16.09 ЮЗ 1 н/о н/о +19.2 +15.9 81 +22 +22 комфорт 1015.7 992.0
21 16.09 штиль 0 н/о н/о +17.8 +15.6 87 +18 +18 1015.8 992.0
22 16.09 СВ 1 н/о н/о +18.8 +16.2 85 +21 +21 комфорт 1015.5 991.8
23 16.09 СВ 2 н/о н/о +20.3 +15.5 74 +24 +24 комфорт 1015.7 992.1
00 17.09 н/о н/о +19.6 +15.7 78 1015.6 991.9
01 17.09 С 3 н/о н/о +19.5 +14.7 74 +21 +21 комфорт 1015.5 991.8
02 17.09 ЮВ 1 н/о н/о +18.0 +15.8 87 +19 +19 1014.8 991.0
03 17.09 С 1 н/о н/о +17.6 +16.5 93 +19 +19 1015.1 991.3
04 17.09 Ю 1 н/о н/о +17.4 +16.6 95 +18 +18 1014.6 990.8
05 17.09 СЗ 2 н/о н/о +17.7 +17.1 96 +18 +18 1015.3 991.5
06 17.09 ЮЗ 2 н/о н/о +17.5 +16.7 95 +18 +18 1015.5 991.7 +17.4 0.6
07 17.09 З 1 н/о н/о +17.8 +17.2 96 +19 +19 1015.6 991.8
08 17.09 штиль 0 н/о н/о +19.3 +17.1 87 +21 +21 комфорт 1016.0 992.3
09 17.09 В 1 н/о н/о +20.0 +15.6 76 +24 +24 комфорт 1015.8 992.2
10 17.09 ЮВ 2 н/о н/о +20.8 +15.8 73 +25 +25 комфорт 1015.8 992.2
11 17.09 В 2 н/о н/о +21.6 +14.7 65 +25 +25 комфорт 1015.5 992.0
12 17.09 ЮВ 2 н/о н/о +22.2 +14.8 63 +26 +26 душно 1014.6 991.2 2
13 17.09 В 2 н/о н/о +21.8 +16.7 73 +26 +26 душно 1014.3 990.8
14 17.09 В 2 н/о н/о +22.7 +16.0 66 +27 +27 душно 1013.4 990.0
15 17.09 СВ 3
{7}
н/о н/о +21.4 +16.4 73 +25 +25 комфорт 1013.1 989.6
16 17.09 СВ 2 н/о н/о +19.4 +17.4 88 +22 +22 комфорт 1013.6 990.0
17 17.09 СВ 1 н/о н/о +19.3 +16.9 86 +22 +22 комфорт 1013.7 990.1
18 17.09 СВ 1 н/о н/о +17.8 +14.7 82 +19 +19 1014.5 990.7 +24.0 3
19 17.09 СВ 1 н/о н/о +17.0 +14.5 85 +18 +18 1014.5 990.7
20 17.09 СЗ 1 н/о н/о +15.1 +14.0 93 +16 +16 1014.9 990.9
21 17.09 З 1 н/о н/о +13.8 +13.0 95 +14 +14 1015.5 991.4
22 17.09 СВ 2 н/о н/о +14.9 +13.8 93 +15 +15 1015.6 991.6
23 17.09 СВ 2 н/о н/о +15.2 +11.4 78 +15 +15 1015.9 991.9
00 18.09 С 3
{10}
н/о н/о +15.7 +7.7 59 +15 +15 1016.3 992.3
01 18.09 С 3 н/о н/о +15.8 +7.3 57 +15 +15 1016.4 992.4
02 18.09 С 4 н/о н/о +15.7 +8.0 60 +15 +15 1016.8 992.8
03 18.09 С 5
{10}
н/о н/о +13.6 +7.6 67 +12 +12 1018.3 994.1
04 18.09 С 5 н/о н/о +13.2 +6.8 65 +11 +11 1019.1 994.8
05 18.09 С 5 н/о н/о +12.6 +4.3 57 +11 +11 1019.7 995.4
06 18.09 С 5
{12}
н/о н/о +12.6 +4.1 56 +11 +11 1021.2 996.8 +12.3
07 18.09 С 4 н/о н/о +13.2 +4.1 54 +12 +12 1021.6 997.3
08 18.09 С 6 н/о н/о +14.3 +4.3 51 +13 +13 1022.0 997.8
09 18.09 С 5
{12}
н/о н/о +15.9 +3.7 44 +15 +15 1022.6 998.5
10 18.09 С 5 н/о н/о +16.4 +1.7 37 +16 +16 1022.6 998.5
11 18.09 С 5 н/о н/о +17.1 +1.9 36 +16 +16 1022.6 998.6
12 18.09 СВ 4
{10}
н/о н/о +17.8 +0.9 32 +18 +18 1022.6 998.6
13 18.09 СВ 3 н/о н/о +17.6 +1.2 33 +18 +18 1022.5 998.5
14 18.09 СВ 3 н/о н/о +18.1 +1.2 32 +18 +18 1022.2 998.3
15 18.09 СВ 2
{7}
н/о н/о +18.0 +0.2 30 +19 +19 1022.2 998.3
16 18.09 В 3 н/о н/о +17.5 +0.2 31 +18 +18 1022.2 998.2
17 18.09 В 1 н/о н/о +15.5 +1.3 38 +16 +16 1022.7 998.5
18 18.09 З 1 н/о н/о +10.4 +5.4 71 +10 +10 1023.7 999.1 +18.3
19 18.09 штиль 0 н/о н/о +10.4 +5.4 71 +10 +10 1024.2 999.6
20 18.09 З 1 н/о н/о +9.3 +5.5 77 +9 +9 1024.5 999.8
21 18.09 З 2 н/о н/о +8.7 +6.2 84 +7 +7 1024.6 999.8
22 18.09 СВ 1 н/о н/о +8.3 +6.1 86 +8 +8 1024.6 999.8
23 18.09 СЗ 1 н/о н/о +6.5 +5.0 90 +5 +5 1025.0 1000.0
00 19.09 штиль 0 н/о н/о +6.3 +5.1 92 +5 +5 1025.1 1000.1
01 19.09 З 1 н/о н/о +6.0 +4.8 92 +5 +5 1024.9 999.9
02 19.09 штиль 0 н/о н/о +5.8 +4.8 93 +5 +5 1024.7 999.7
03 19.09 штиль 0 н/о н/о +6.8 +5.6 92 +6 +6 1024.8 999.8
04 19.09 С 1 н/о н/о +8.5 +3.9 73 +8 +8 1024.8 1000.0
05 19.09 С 1 н/о н/о +5.7 +3.7 87 +5 +5 1025.5 1000.4
06 19.09 С 1 н/о н/о +10.4 +4.3 66 +10 +10 1025.8 1001.1 +5.6
07 19.09 С 2 н/о н/о +12.9 +3.6 53 +12 +12 1025.9 1001.4
08 19.09 С 3 н/о н/о +13.7 +2.9 48 +13 +13 1026.3 1001.9
09 19.09 С 3
{7}
н/о н/о +14.8 +4.2 49 +14 +14 1026.3 1002.0
10 19.09 С 3 н/о н/о +15.3 +4.4 48 +15 +15 1026.2 1001.9
11 19.09 С 3 н/о н/о +16.3 +3.4 42 +16 +16 1025.8 1001.6
12 19.09 С 3
{8}
н/о н/о +16.5 +3.2 41 +16 +16 1025.4 1001.3
13 19.09 С 4 н/о н/о +16.3 +2.7 40 +16 +16 1025.5 1001.3
14 19.09 С 4 н/о н/о +16.7 +2.3 38 +16 +16 1025.2 1001.1
15 19.09 С 4
{9}
н/о н/о +16.4 +1.3 36 +16 +16 1025.2 1001.1
16 19.09 С 4 н/о н/о +15.6 +1.3 38 +15 +15 1025.3 1001.1
17 19.09 СВ 2 н/о н/о +14.4 +1.3 41 +14 +14 1025.7 1001.4
18 19.09 С 2 н/о н/о +11.8 +1.4 49 +12 +12 1027.1 1002.5 +17.3
19 19.09 С 2 н/о н/о +11.5 +1.7 51 +11 +11 1027.4 1002.8
20 19.09 С 3 н/о н/о +11.7 +1.4 49 +10 +10 1028.2 1003.6
21 19.09 СЗ 2 н/о н/о +9.0 +1.7 60 +8 +8 1029.1 1004.2
22 19.09 СЗ 3 н/о н/о +11.2 +1.2 50 +10 +10 1028.9 1004.2
23 19.09 СЗ 3 н/о н/о +10.8 +0.8 50 +9 +9 1028.9 1004.2
00 20.09 С 3 н/о н/о +10.5 +0.5 50 +9 +9 1028.9 1004.2
01 20.09 СЗ 3 н/о н/о +10.0 +0.9 53 +8 +8 1028.8 1004.0
02 20.09 С 3 н/о н/о +9.7 +1.4 56 +8 +8 1028.5 1003.7
03 20.09 СЗ 2 н/о н/о +8.6 +1.3 60 +7 +7 1028.5 1003.6
04 20.09 З 2 н/о н/о +5.9 +1.4 73 +4 +4 1028.8 1003.7
05 20.09 З 2 н/о н/о +5.4 +1.0 73 +3 +3 1029.0 1003.8
06 20.09 С 3 н/о н/о +9.1 +1.8 60 +7 +7 1028.7 1003.9 +5.4
07 20.09 С 2 н/о н/о +11.6 +2.4 53 +11 +11 1028.9 1004.3
08 20.09 С 3 н/о н/о +13.2 +3.0 50 +12 +12 1029.3 1004.8
09 20.09 С 2 н/о н/о +14.3 +3.2 47 +14 +14 1029.2 1004.8
10 20.09 С 2 н/о н/о +14.8 +2.7 44 +15 +15 1029.1 1004.7
11 20.09 С 2 н/о н/о +15.0 +2.9 44 +15 +15 1028.5 1004.2
12 20.09 С 2 н/о н/о +16.7 +2.3 38 +17 +17 1027.9 1003.7
13 20.09 СЗ 2 н/о н/о +16.9 +2.5 38 +17 +17 1027.5 1003.3
14 20.09 СВ 1 н/о н/о +16.7 +1.2 35 +18 +18 1027.1 1002.9
15 20.09 В 2 н/о н/о +16.4 +1.3 36 +17 +17 1027.0 1002.8
17 20.09 В 1 н/о н/о +14.5 +1.8 42 +15 +15 1027.2 1002.8
18 20.09 штиль 0 н/о н/о +9.4 +3.4 66 +9 +9 1028.2 1003.4 +17.0
19 20.09 штиль 0 н/о н/о +8.3 +3.6 72 +8 +8 1028.5 1003.6
20 20.09 З 1 н/о н/о +6.9 +4.0 82 +6 +6 1028.8 1003.8
21 20.09 З 1 н/о н/о +5.7 +3.4 85 +5 +5 1029.0 1003.8
22 20.09 штиль 0 н/о н/о +5.3 +3.3 87 +4 +4 1028.9 1003.7
23 20.09 З 1 н/о н/о +4.8 +3.0 88 +3 +3 1028.8 1003.6
00 21.09 штиль 0 н/о н/о +4.0 +2.5 90 +3 +3 1028.8 1003.5
01 21.09 штиль 0 н/о н/о +3.6 +2.4 92 +2 +2 1028.8 1003.5
02 21.09 штиль 0 н/о н/о +3.0 +1.8 92 +2 +2 1028.6 1003.2
03 21.09 З 1 н/о н/о +2.9 +2.0 94 +1 +1 1028.3 1002.9
04 21.09 штиль 0 н/о н/о +2.6 +1.7 94 +1 +1 1028.0 1002.6
05 21.09 штиль 0 н/о н/о +2.6 +1.9 95 +1 +1 1028.1 1002.7
06 21.09 Ю 1 н/о н/о +6.0 +5.1 94 +5 +5 1027.9 1002.8 +2.2
07 21.09 Ю 2 н/о н/о +8.3 +5.2 81 +6 +6 1028.1 1003.2
08 21.09 Ю 2 н/о н/о +11.6 +5.7 67 +11 +11 1028.1 1003.5
09 21.09 Ю 4 н/о н/о +16.1 +3.5 43 +15 +15 1027.5 1003.3
10 21.09 Ю 4 н/о н/о +16.8 +3.8 42 +16 +16 1027.2 1003.0
11 21.09 Ю 4 н/о н/о +17.8 +4.0 40 +18 +18 1026.5 1002.4
12 21.09 Ю 4
{8}
н/о н/о +19.0 +3.2 35 +19 +19 1025.5 1001.6
13 21.09 Ю 3 н/о н/о +19.0 +3.2 35 +19 +19 1025.0 1001.1
14 21.09 Ю 4 н/о н/о +19.2 +3.8 36 +20 +20 1024.3 1000.4
15 21.09 Ю 3 н/о н/о +18.9 +3.5 36 +19 +19 1023.6 999.7
16 21.09 Ю 3 н/о н/о +18.2 +3.3 37 +18 +18 1023.6 999.6
17 21.09 Ю 2 н/о н/о +16.0 +3.4 43 +16 +16 1023.5 999.4
18 21.09 Ю 2 н/о н/о +12.1 +4.6 60 +11 +11 1023.9 999.4 +19.7
19 21.09 Ю 2 н/о н/о +11.0 +4.5 64 +10 +10 1024.1 999.5
20 21.09 штиль 0 н/о н/о +8.7 +4.5 75 +8 +8 1024.1 999.3
21 21.09 штиль 0 н/о н/о +7.0 +4.1 82 +6 +6 1023.8 998.9
22 21.09 штиль 0 н/о н/о +6.1 +3.9 86 +5 +5 1023.8 998.8
23 21.09 Ю 1 н/о н/о +5.1 +3.4 89 +4 +4 1023.2 998.1
00 22.09 ЮЗ 1 н/о н/о +5.3 +4.0 91 +4 +4 1022.5 997.5
01 22.09 штиль 0 н/о н/о +4.4 +3.1 91 +3 +3 1022.2 997.1
02 22.09 ЮВ 1 н/о н/о +4.5 +3.5 93 +3 +3 1022.1 997.0
03 22.09 В 1 н/о н/о +3.8 +2.9 94 +2 +2 1021.4 996.3
04 22.09 штиль 0 н/о н/о +2.9 +2.0 94 +2 +2 1021.2 996.0
05 22.09 ЮВ 1 н/о н/о +2.4 +1.8 96 +1 +1 1021.2 995.9
06 22.09 штиль 0 н/о н/о +6.7 +6.3 97 +6 +6 1020.9 996.0 +2.1
07 22.09 ЮЗ 1 н/о н/о +9.1 +5.1 76 +9 +9 1020.4 995.8
08 22.09 Ю 1 н/о н/о +12.1 +5.7 65 +12 +12 1019.7 995.3
09 22.09 ЮВ 3 н/о н/о +16.4 +4.4 45 +16 +16 1018.6 994.6
10 22.09 Ю 4 н/о н/о +18.7 +5.2 41 +19 +19 1017.8 994.0
11 22.09 Ю 6 н/о н/о +19.8 +4.7 37 +20 +20 1016.7 993.0
12 22.09 Ю 6
{10}
н/о н/о +20.5 +4.5 35 +21 +21 комфорт 1015.7 992.1
13 22.09 Ю 6 н/о н/о +20.1 +3.8 34 +20 +20 1015.3 991.7
14 22.09 Ю 5 н/о н/о +19.5 +5.6 40 +20 +20 1015.2 991.5
15 22.09 Ю 4
{8}
н/о н/о +18.7 +5.2 41 +19 +19 1014.7 991.0
16 22.09 Ю 3 н/о н/о +18.3 +6.2 45 +19 +19 1014.6 990.9
17 22.09 Ю 2 н/о н/о +17.1 +6.6 50 +17 +17 1014.1 990.3
18 22.09 ЮВ 2 н/о н/о +15.3 +7.6 60 +15 +15 1014.0 990.0 +20.9
19 22.09 Ю 2 н/о н/о +14.6 +7.9 64 +14 +14 1013.5 989.5
20 22.09 Ю 2 н/о н/о +14.2 +8.8 70 +14 +14 1013.5 989.4
21 22.09 Ю 1 н/о н/о +13.3 +9.5 78 +14 +14 1013.1 989.0
22 22.09 Ю 2 н/о н/о +13.2 +9.5 78 +13 +13 1012.8 988.7
23 22.09 Ю 2 н/о н/о +11.2 +8.4 83 +10 +10 1012.9 988.6
00 23.09 Ю 1 н/о н/о +9.4 +7.8 90 +9 +9 1012.9 988.5
01 23.09 З 1 н/о н/о +8.7 +7.6 93 +8 +8 1012.9 988.4
02 23.09 штиль 0 н/о н/о +9.2 +8.3 94 +8 +8 1012.8 988.3
03 23.09 штиль 0 н/о н/о +9.1 +8.3 95 +8 +8 1012.4 987.9
04 23.09 штиль 0 н/о н/о +9.4 +8.6 95 +9 +9 1012.3 987.9
05 23.09 С 1 н/о н/о +8.6 +7.8 95 +8 +8 1012.3 987.8
06 23.09 штиль 0 н/о н/о +11.4 +10.8 96 +11 +11 1012.7 988.4 +8.1
07 23.09 С 1 н/о н/о +13.4 +10.2 81 +14 +14 1012.7 988.6
08 23.09 С 2 н/о н/о +15.0 +10.6 75 +15 +15 1013.0 989.0
09 23.09 С 2 н/о н/о +17.6 +11.6 68 +18 +18 1012.7 988.9
10 23.09 СВ 2 н/о н/о +18.3 +11.1 63 +19 +19 1012.7 989.0
11 23.09 С 3 н/о н/о +19.4 +11.4 60 +21 +21 комфорт 1012.7 989.1
12 23.09 СВ 2 н/о н/о +19.6 +11.6 60 +22 +22 комфорт 1012.7 989.1
13 23.09 СВ 3 н/о н/о +19.9 +11.9 60 +22 +22 комфорт 1012.4 988.8
14 23.09 С 4 н/о н/о +20.7 +12.1 58 +23 +23 комфорт 1012.3 988.8
15 23.09 СВ 3
{8}
н/о н/о +20.1 +11.3 57 +22 +22 комфорт 1012.3 988.8
16 23.09 СВ 2 н/о н/о +19.7 +11.0 57 +22 +22 комфорт 1012.5 988.9
17 23.09 СВ 3 н/о н/о +18.6 +10.2 58 +19 +19 1012.7 989.0
18 23.09 СВ 2 н/о н/о +17.7 +10.3 62 +18 +18 1014.0 990.2 +20.8
19 23.09 СВ 3 н/о н/о +16.8 +10.2 65 +17 +17 1014.3 990.4

 

Местоположение метеостанции Сомбатхей (Венгрия): широта 47.27 долгота 16.63 высота над уровнем моря 221 м.

В архиве по умолчанию представлена погода в Сомбатхее за последнюю неделю. Архивные данные за месяц целиком и за предыдущие месяцы, начиная с января 2011 года, Вы можете получить, выбрав интересующий диапазон дат из раскрывающегося списка и нажав кнопку "Ввод!".


*Определитесь, кто Вы:
робот инопланетянин человек

Внимание! Время в таблицах - всемирное. Для получения местного времени необходимо прибавить поправку, которая равна 1 ч.

Смотрите также архив погоды в соседних городах и на ближайших метеорологических станциях:

Погода в Луцмансбурге (Австрия) (22 км)
Погода в Кляйнциккене (Австрия) (24 км)
Погода в Бад-Тацмансдорфе (Австрия) (32 км)
Погода в Крумбахе (Австрия) (44 км)
Погода в Сентготтхарде (Венгрия) (45 км)
Погода в Шопроне (Венгрия) (46 км)
Погода в Залаэгерсеге (Венгрия) (46 км)
Погода в Хартберге (Австрия) (49 км)
Погода в Мёнихкирхене (Австрия) (53 км)
Погода в Андау (Австрия) (63 км)

Пояснения к столбцам:

Ветер - указаны скорость ветра в м/с - средняя за 10 мин, порывы в срок и между сроками (в фигурных скобках) и направление, откуда дует ветер: С - северный, СВ - северо-восточный, В - восточный, ЮВ - юго-восточный, Ю - южный, ЮЗ - юго-западный, З - западный, СЗ - северо-западный.
Видимость - горизонтальная дальность видимости в метрах или километрах. При видимости от 1 до 10 км при отсутствии осадков обычно наблюдается дымка, при ухудшении видимости до 1 км и менее - туман. В сухую погоду видимость может ухудшаться дымом, пылью или мглою.
Явления - указаны атмосферные явления, наблюдавшиеся в срок или в последний час перед сроком; фигурными скобками обозначены явления, наблюдавшиеся между сроками (за 1-3 часа до срока); квадратными скобками обозначены град или гололедные отложения с указанием их диаметра в мм.
Облачность - указаны через наклонную черту общая и нижняя облачность в баллах и высота нижней границы облаков в метрах; квадратными скобками обозначены формы облаков: Ci - перистые, Cs - перисто-слоистые, Cc - перисто-кучевые, Ac - высококучевые, As - высокослоистые, Sc - слоисто-кучевые, Ns - слоисто-дождевые, Cu - кучевые, Cb - кучево-дождевые. Подробнее классификацию облаков см. в Атласе облаков (PDF).
T - Температура воздуха - температура, измеренная на высоте 2 м над землей.
Td - Температура точки росы - температура, при понижении до которой содержащийся в воздухе водяной пар достигнет насыщения.
f - Относительная влажность воздуха - влажноcть воздуха, измеренная на высоте 2 м над землей.
Te - Эффективная температура - температура, которую ощущает одетый по сезону человек в тени. Характеристика душности погоды. При расчете учитывается влияние влажности воздуха и скорости ветра на теплоощущения человека.
Tes - Эффективная температура на солнце - температура, которую ощущает человек, с поправкой на солнечный нагрев. Характеристика знойности погоды. Зависит от высоты солнца над горизонтом, облачности и скорости ветра. Ночью, в пасмурную погоду, а также при ветре 12 м/с и более поправка равна нулю.
P - Атмосферное давление - приведенное к уровню моря атмосферное давление.
Po - Атмосферное давление - измеренное на уровне метеостанции атмосферное давление.
Tmin - Минимальная температура - минимум температуры воздуха на высоте 2 м над землей.
Tmax - Максимальная температура - максимум температуры воздуха на высоте 2 м над землей.
R - Количество осадков - Количество выпавших осадков за период времени, мм. При наведении курсора мыши на число - период времени, за который выпало указанное количество осадков.
R24 - Количество осадков - Количество выпавших осадков за 24 часа, мм.
S - Снежный покров - Высота снежного покрова, см. При наведении курсора мыши на число - состояние снежного покрова и степень покрытия местности в баллах.